Creek Data

    Home     View Charts     View Raw Data     Messages

ID Distance Battery Voltage Battery Current Internal Temp Internal Humidity External Temp Solar Input rssi snr Time Stamp Record
66240 15.1 3.87 -15 40 50 41 4.5 -70 8 02/14/2026 07:30 AM 49048
66239 15.1 3.79 -17 40 50 40 4.5 -70 9 02/14/2026 07:15 AM 49047
66238 15.1 3.89 -10 40 50 42 4.2 -69 9 02/14/2026 07:00 AM 49046
66237 15.1 3.76 -5 39 50 41 1.1 -68 9 02/14/2026 06:45 AM 49045
66236 15.1 3.92 -5 39 51 41 0 -68 8 02/14/2026 06:30 AM 49044
66235 15.1 3.76 -5 39 51 40 0 -68 8 02/14/2026 06:15 AM 49043
66234 15.1 3.77 -5 40 51 41 0 -69 8 02/14/2026 06:00 AM 49042
66233 15.1 3.77 -5 40 50 41 0 -68 8 02/14/2026 05:45 AM 49041
66232 15.1 3.77 -5 41 50 42 0 -68 9 02/14/2026 05:30 AM 49040
66231 15.1 3.92 -5 40 50 42 0 -68 8 02/14/2026 05:15 AM 49039
66230 15.1 3.77 -5 41 50 42 0.1 -68 8 02/14/2026 05:00 AM 49038
66229 15.1 3.92 -5 41 50 43 0 -68 8 02/14/2026 04:45 AM 49037
66228 15.1 3.78 -5 41 50 43 0 -68 8 02/14/2026 04:30 AM 49036
66227 15.1 3.92 -5 41 50 43 0 -68 8 02/14/2026 04:15 AM 49035
66226 15.1 3.79 -5 40 51 42 0.1 -68 8 02/14/2026 04:00 AM 49034
66225 15.1 3.93 -5 40 50 42 0 -68 8 02/14/2026 03:45 AM 49033
66224 15.1 3.79 -5 40 50 42 0 -70 7 02/14/2026 03:30 AM 49032
66223 15.1 3.93 -5 40 50 42 0 -68 8 02/14/2026 03:15 AM 49031
66222 15.1 3.80 -5 40 51 42 0.1 -68 8 02/14/2026 03:00 AM 49030
66221 15.1 3.93 -5 40 51 42 0 -69 8 02/14/2026 02:45 AM 49029
66220 15.1 3.79 -5 41 51 42 0 -70 9 02/14/2026 02:30 AM 49028
66219 15.1 3.93 -5 41 51 43 0 -68 9 02/14/2026 02:15 AM 49027
66218 15.1 3.79 -5 41 51 42 0.1 -68 8 02/14/2026 02:00 AM 49026
66217 15.1 3.93 -5 42 51 43 0 -68 8 02/14/2026 01:45 AM 49025
66216 15.1 3.93 -5 42 51 42 0 -69 8 02/14/2026 01:30 AM 49024